EN

Hourly Weather Paimpol

Today, 21 April, Wednesday

Time Temperature Precipitation Wind Pressure Humidity
00:00 +7°C° 0 mm 3 mps 759 mmHg 89%
01:00 +7°C° 0 mm 3 mps 759 mmHg 89%
02:00 +5°C° 0 mm 3 mps 759 mmHg 89%
03:00 +5°C° 0 mm 3 mps 759 mmHg 89%
04:00 +5°C° 0 mm 3 mps 759 mmHg 89%
05:00 +5°C° 0 mm 3 mps 759 mmHg 89%
06:00 +7°C° 0 mm 3 mps 759 mmHg 90%
07:00 +7°C° 0 mm 4 mps 759 mmHg 85%
08:00 +10°C° 0 mm 4 mps 760 mmHg 79%
09:00 +12°C° 0 mm 4 mps 760 mmHg 74%
10:00 +13°C° 0.1 mm 5 mps 760 mmHg 72%
11:00 +14°C° 0.1 mm 5 mps 760 mmHg 70%
12:00 +15°C° 0.1 mm 5 mps 760 mmHg 68%
13:00 +14°C° 0.1 mm 6 mps 759 mmHg 68%
14:00 +14°C° 0.1 mm 6 mps 759 mmHg 69%
15:00 +14°C° 0.1 mm 7 mps 759 mmHg 70%
16:00 +12°C° 0 mm 7 mps 759 mmHg 74%
17:00 +12°C° 0 mm 8 mps 759 mmHg 78%
18:00 +11°C° 0 mm 8 mps 760 mmHg 83%
19:00 +10°C° 0 mm 8 mps 760 mmHg 87%
20:00 +9°C° 0 mm 8 mps 761 mmHg 91%
21:00 +7°C° 0 mm 8 mps 761 mmHg 95%
22:00 +7°C° 0 mm 8 mps 761 mmHg 95%
23:00 +6°C° 0 mm 8 mps 761 mmHg 95%

Tomorrow, 22 April, Thursday

Time Temperature Precipitation Wind Pressure Humidity
00:00 +6°C° 0 mm 9 mps 761 mmHg 95%
01:00 +6°C° 0 mm 8 mps 761 mmHg 94%
02:00 +6°C° 0 mm 8 mps 762 mmHg 93%
03:00 +6°C° 0 mm 8 mps 762 mmHg 92%
04:00 +6°C° 0 mm 8 mps 762 mmHg 92%
05:00 +5°C° 0 mm 8 mps 762 mmHg 92%
06:00 +5°C° 0 mm 8 mps 762 mmHg 93%
07:00 +6°C° 0 mm 8 mps 763 mmHg 87%
08:00 +9°C° 0 mm 8 mps 763 mmHg 82%
09:00 +10°C° 0 mm 8 mps 763 mmHg 77%
10:00 +11°C° 0 mm 8 mps 763 mmHg 74%
11:00 +12°C° 0 mm 8 mps 764 mmHg 70%
12:00 +13°C° 0 mm 8 mps 764 mmHg 67%
13:00 +13°C° 0 mm 8 mps 763 mmHg 67%
14:00 +13°C° 0 mm 9 mps 763 mmHg 67%
15:00 +13°C° 0 mm 9 mps 763 mmHg 67%
16:00 +12°C° 0 mm 9 mps 763 mmHg 70%
17:00 +12°C° 0 mm 9 mps 763 mmHg 73%
18:00 +11°C° 0 mm 9 mps 763 mmHg 76%
19:00 +10°C° 0 mm 9 mps 764 mmHg 78%
20:00 +8°C° 0 mm 9 mps 764 mmHg 79%
21:00 +7°C° 0 mm 9 mps 764 mmHg 80%
22:00 +7°C° 0 mm 8 mps 765 mmHg 80%
23:00 +6°C° 0 mm 8 mps 765 mmHg 79%

Day after tomorrow, 23 April, Friday

Time Temperature Precipitation Wind Pressure Humidity
00:00 +6°C° 0 mm 7 mps 765 mmHg 78%
01:00 +5°C° 0 mm 7 mps 765 mmHg 78%
02:00 +5°C° 0 mm 7 mps 764 mmHg 77%
03:00 +4°C° 0 mm 7 mps 764 mmHg 76%
04:00 +4°C° 0 mm 8 mps 764 mmHg 76%
05:00 +4°C° 0 mm 8 mps 764 mmHg 77%
06:00 +4°C° 0 mm 8 mps 764 mmHg 77%
07:00 +6°C° 0 mm 8 mps 764 mmHg 72%
08:00 +9°C° 0 mm 8 mps 764 mmHg 67%
09:00 +11°C° 0 mm 8 mps 765 mmHg 62%
10:00 +12°C° 0 mm 8 mps 764 mmHg 59%
11:00 +13°C° 0 mm 8 mps 764 mmHg 56%
12:00 +15°C° 0 mm 7 mps 764 mmHg 53%
13:00 +16°C° 0 mm 7 mps 764 mmHg 54%
14:00 +16°C° 0 mm 7 mps 764 mmHg 55%
15:00 +16°C° 0 mm 7 mps 763 mmHg 56%
16:00 +16°C° 0 mm 7 mps 763 mmHg 61%
17:00 +15°C° 0 mm 7 mps 763 mmHg 65%
18:00 +14°C° 0 mm 7 mps 763 mmHg 70%
19:00 +12°C° 0 mm 7 mps 763 mmHg 71%
20:00 +11°C° 0 mm 7 mps 764 mmHg 72%
21:00 +10°C° 0 mm 7 mps 764 mmHg 73%
22:00 +9°C° 0 mm 7 mps 764 mmHg 76%
23:00 +8°C° 0 mm 7 mps 763 mmHg 79%

24 April, Saturday

Time Temperature Precipitation Wind Pressure Humidity
00:00 +6°C° 0 mm 7 mps 763 mmHg 83%
01:00 +6°C° 0 mm 7 mps 763 mmHg 83%
02:00 +5°C° 0 mm 7 mps 763 mmHg 84%
03:00 +5°C° 0 mm 7 mps 763 mmHg 85%
04:00 +5°C° 0 mm 7 mps 763 mmHg 82%
05:00 +5°C° 0 mm 7 mps 763 mmHg 80%
06:00 +5°C° 0 mm 7 mps 763 mmHg 78%
07:00 +8°C° 0 mm 7 mps 763 mmHg 74%
08:00 +9°C° 0 mm 8 mps 763 mmHg 70%
09:00 +11°C° 0 mm 8 mps 763 mmHg 66%
10:00 +12°C° 0 mm 8 mps 763 mmHg 64%
11:00 +14°C° 0 mm 7 mps 763 mmHg 62%
12:00 +15°C° 0 mm 7 mps 762 mmHg 60%
13:00 +16°C° 0 mm 7 mps 762 mmHg 60%
14:00 +16°C° 0 mm 7 mps 762 mmHg 61%
15:00 +17°C° 0 mm 7 mps 762 mmHg 61%
16:00 +16°C° 0 mm 7 mps 762 mmHg 66%
17:00 +15°C° 0 mm 7 mps 762 mmHg 72%
18:00 +13°C° 0 mm 8 mps 762 mmHg 77%
19:00 +12°C° 0 mm 8 mps 762 mmHg 80%
20:00 +11°C° 0 mm 7 mps 762 mmHg 82%
21:00 +10°C° 0 mm 7 mps 763 mmHg 84%
22:00 +10°C° 0 mm 7 mps 763 mmHg 84%
23:00 +9°C° 0 mm 7 mps 763 mmHg 84%

25 April, Sunday

Time Temperature Precipitation Wind Pressure Humidity
00:00 +9°C° 0 mm 7 mps 762 mmHg 84%
01:00 +9°C° 0 mm 7 mps 762 mmHg 86%
02:00 +8°C° 0 mm 7 mps 762 mmHg 88%
03:00 +6°C° 0 mm 7 mps 761 mmHg 90%
04:00 +6°C° 0 mm 7 mps 761 mmHg 89%
05:00 +6°C° 0 mm 8 mps 761 mmHg 89%
06:00 +6°C° 0 mm 8 mps 761 mmHg 89%
07:00 +9°C° 0 mm 8 mps 761 mmHg 84%
08:00 +10°C° 0 mm 9 mps 761 mmHg 79%
09:00 +11°C° 0 mm 9 mps 761 mmHg 74%
10:00 +12°C° 0 mm 9 mps 760 mmHg 71%
11:00 +12°C° 0 mm 9 mps 760 mmHg 68%
12:00 +13°C° 0 mm 9 mps 760 mmHg 65%
13:00 +13°C° 0 mm 9 mps 759 mmHg 65%
14:00 +13°C° 0 mm 9 mps 759 mmHg 66%
15:00 +13°C° 0 mm 10 mps 758 mmHg 67%
16:00 +13°C° 0 mm 9 mps 758 mmHg 72%
17:00 +12°C° 0 mm 9 mps 758 mmHg 77%
18:00 +11°C° 0 mm 9 mps 758 mmHg 82%
19:00 +10°C° 0 mm 9 mps 758 mmHg 85%
20:00 +9°C° 0 mm 8 mps 758 mmHg 88%
21:00 +7°C° 0 mm 8 mps 758 mmHg 91%
22:00 +7°C° 0 mm 8 mps 758 mmHg 92%
23:00 +6°C° 0 mm 7 mps 757 mmHg 94%

26 April, Monday

Time Temperature Precipitation Wind Pressure Humidity
00:00 +6°C° 0 mm 7 mps 757 mmHg 95%
01:00 +7°C° 0 mm 6 mps 757 mmHg 95%
02:00 +7°C° 0 mm 6 mps 756 mmHg 95%
03:00 +6°C° 0 mm 5 mps 756 mmHg 96%
04:00 +6°C° 0 mm 5 mps 756 mmHg 96%
05:00 +7°C° 0 mm 5 mps 755 mmHg 95%
06:00 +7°C° 0 mm 5 mps 755 mmHg 95%
07:00 +8°C° 0 mm 5 mps 755 mmHg 90%
08:00 +10°C° 0 mm 6 mps 755 mmHg 84%
09:00 +11°C° 0 mm 6 mps 755 mmHg 79%
10:00 +11°C° 0 mm 6 mps 754 mmHg 76%
11:00 +13°C° 0 mm 6 mps 754 mmHg 74%
12:00 +13°C° 0 mm 6 mps 754 mmHg 72%
13:00 +13°C° 0 mm 5 mps 754 mmHg 71%
14:00 +13°C° 0 mm 5 mps 753 mmHg 71%
15:00 +13°C° 0 mm 4 mps 753 mmHg 70%
16:00 +12°C° 0 mm 4 mps 753 mmHg 73%
17:00 +10°C° 0 mm 5 mps 753 mmHg 76%
18:00 +9°C° 0 mm 5 mps 752 mmHg 79%
19:00 +8°C° 0 mm 5 mps 752 mmHg 83%
20:00 +7°C° 0 mm 4 mps 752 mmHg 86%
21:00 +5°C° 0 mm 4 mps 752 mmHg 90%
22:00 +5°C° 0 mm 4 mps 752 mmHg 91%
23:00 +5°C° 0 mm 4 mps 752 mmHg 91%
Show more

We Need Your Consent

Meteoprog and our Service Providers may store and access personal data such as cookies, device identifiers or other similar technologies on your device and process such data to personalise content and ads, as well as provide social media features and to analyse the traffic.

  • Store and/or access information on your device

    Cookies, device identifiers or other information can be stored or accessed on your device for the purposes indicated above.

  • Personalised ads and content, ad and content measurement, audience insights, and products development

    Ads and content can be personalised based on a profile. More data can be added to better personalise ads and content. Ad and content performance can be measured. Insights about the audience who saw the ads and content can be derived. Such data can be used to develop or improve user’s experience, systems and software.

By clicking ‘I Agree’ you will allow the use of indicated cookies, device identifiers, web beacons or other similar technologies. Your settings can be changed in the browser on your device.

For certain purposes, legitimate interests may be relied on, rather than consent. You can read more about this in our Privacy and Cookie Policy.